Time,TemperatureF,DewpointF,PressureIn,WindDirection,WindDirectionDegrees,WindSpeedMPH,WindSpeedGustMPH,Humidity,HourlyPrecipIn,Conditions,Clouds,dailyrainin,SoftwareType,DateUTC
2013-09-17 00:03:00,45.3,35.0,30.27,West,273,3.0,7.0,67,0.00,CLR,SCT,0.00,WeatherDisplay:10.37,2013-09-17 04:03:00,
2013-09-17 00:18:00,45.0,35.1,30.28,WNW,290,3.0,6.0,68,0.00,CLR,SCT,0.00,WeatherDisplay:10.37,2013-09-17 04:18:00,
2013-09-17 00:33:00,44.8,34.9,30.29,West,279,5.0,6.0,68,0.00,CLR,SCT,0.00,WeatherDisplay:10.37,2013-09-17 04:33:00,
2013-09-17 00:48:00,44.4,34.5,30.29,WNW,291,2.0,6.0,68,0.00,CLR,SCT,0.00,WeatherDisplay:10.37,2013-09-17 04:48:00,
2013-09-17 01:03:00,43.9,34.7,30.30,WNW,299,2.0,9.0,70,0.00,CLR,SCT,0.00,WeatherDisplay:10.37,2013-09-17 05:03:00,
2013-09-17 01:18:00,43.7,34.6,30.30,West,277,0.0,7.0,70,0.00,CLR,SCT,0.00,WeatherDisplay:10.37,2013-09-17 05:18:00,
2013-09-17 01:33:00,43.0,33.9,30.32,West,267,3.0,3.0,70,0.00,CLR,SCT,0.00,WeatherDisplay:10.37,2013-09-17 05:33:00,
2013-09-17 01:48:00,42.6,33.5,30.32,West,266,2.0,6.0,70,0.00,CLR,SCT,0.00,WeatherDisplay:10.37,2013-09-17 05:48:00,
2013-09-17 02:03:00,42.6,33.5,30.32,WNW,289,5.0,5.0,70,0.00,CLR,SCT,0.00,WeatherDisplay:10.37,2013-09-17 06:03:00,
2013-09-17 02:18:00,42.4,33.3,30.32,West,277,2.0,5.0,70,0.00,CLR,SCT,0.00,WeatherDisplay:10.37,2013-09-17 06:18:00,
2013-09-17 02:33:00,42.1,33.0,30.33,WNW,289,2.0,6.0,70,0.00,CLR,SCT,0.00,WeatherDisplay:10.37,2013-09-17 06:33:00,
2013-09-17 02:48:00,41.9,32.8,30.33,WNW,287,1.0,5.0,70,0.00,CLR,SCT,0.00,WeatherDisplay:10.37,2013-09-17 06:48:00,
2013-09-17 03:03:00,41.5,33.8,30.33,WNW,289,2.0,5.0,74,0.00,CLR,SCT,0.00,WeatherDisplay:10.37,2013-09-17 07:03:00,
2013-09-17 03:18:00,40.8,33.5,30.33,North,350,0.0,3.0,75,0.00,CLR,SCT,0.00,WeatherDisplay:10.37,2013-09-17 07:18:00,
2013-09-17 03:33:00,39.7,32.4,30.33,NE,42,0.0,0.0,75,0.00,CLR,SCT,0.00,WeatherDisplay:10.37,2013-09-17 07:33:00,
2013-09-17 03:48:00,39.1,31.8,30.33,WSW,256,0.0,0.0,75,0.00,CLR,SCT,0.00,WeatherDisplay:10.37,2013-09-17 07:48:00,
2013-09-17 04:03:00,38.5,32.6,30.34,West,277,0.0,0.0,79,0.00,CLR,SCT,0.00,WeatherDisplay:10.37,2013-09-17 08:03:00,
2013-09-17 04:18:00,37.9,31.9,30.34,West,280,0.0,0.0,79,0.00,CLR,SCT,0.00,WeatherDisplay:10.37,2013-09-17 08:18:00,
2013-09-17 04:33:00,37.4,31.5,30.34,West,281,0.0,0.0,79,0.00,CLR,SCT,0.00,WeatherDisplay:10.37,2013-09-17 08:33:00,
2013-09-17 04:48:00,37.6,31.7,30.34,West,281,1.0,3.0,79,0.00,CLR,SCT,0.00,WeatherDisplay:10.37,2013-09-17 08:48:00,
2013-09-17 05:03:00,37.0,32.6,30.34,West,267,0.0,0.0,84,0.00,CLR,SCT,0.00,WeatherDisplay:10.37,2013-09-17 09:03:00,
2013-09-17 05:18:00,37.2,33.1,30.35,NNE,15,0.0,3.0,85,0.00,CLR,SCT,0.00,WeatherDisplay:10.37,2013-09-17 09:18:00,
2013-09-17 05:33:00,37.8,33.7,30.36,North,0,0.0,2.0,85,0.00,CLR,SCT,0.00,WeatherDisplay:10.37,2013-09-17 09:33:00,
2013-09-17 05:48:00,37.4,33.3,30.37,NNE,17,0.0,3.0,85,0.00,CLR,SCT,0.00,WeatherDisplay:10.37,2013-09-17 09:48:00,
2013-09-17 06:03:00,37.4,35.6,30.37,WNW,295,2.0,4.0,93,0.00,CLR,SCT,0.00,WeatherDisplay:10.37,2013-09-17 10:03:00,
2013-09-17 06:18:00,38.1,36.8,30.38,NW,316,0.0,3.0,95,0.00,CLR,SCT,0.00,WeatherDisplay:10.37,2013-09-17 10:18:00,
2013-09-17 06:33:00,37.4,36.1,30.39,NW,316,0.0,0.0,95,0.00,CLR,SCT,0.00,WeatherDisplay:10.37,2013-09-17 10:33:00,
2013-09-17 06:48:00,37.8,36.5,30.40,NW,326,0.0,2.0,95,0.00,CLR,SCT,0.00,WeatherDisplay:10.37,2013-09-17 10:48:00,
2013-09-17 07:03:00,37.6,36.6,30.40,WNW,302,0.0,0.0,96,0.00,CLR,SCT,0.00,WeatherDisplay:10.37,2013-09-17 11:03:00,
2013-09-17 07:18:00,37.6,36.6,30.41,ENE,78,0.0,0.0,96,0.00,CLR,SCT,0.00,WeatherDisplay:10.37,2013-09-17 11:18:00,
2013-09-17 07:33:00,38.8,37.8,30.41,ENE,66,0.0,0.0,96,0.00,CLR,SCT,0.00,WeatherDisplay:10.37,2013-09-17 11:33:00,
2013-09-17 07:48:00,41.2,40.1,30.42,NW,321,2.0,4.0,96,0.00,CLR,SCT,0.00,WeatherDisplay:10.37,2013-09-17 11:48:00,
2013-09-17 08:03:00,43.7,35.3,30.41,NW,310,3.0,6.0,72,0.00,CLR,SCT,0.00,WeatherDisplay:10.37,2013-09-17 12:03:00,
2013-09-17 08:18:00,45.9,34.8,30.42,NW,322,2.0,6.0,65,0.00,CLR,SCT,0.00,WeatherDisplay:10.37,2013-09-17 12:18:00,
2013-09-17 08:33:00,47.5,36.3,30.43,WNW,291,5.0,9.0,65,0.00,CLR,SCT,0.00,WeatherDisplay:10.37,2013-09-17 12:33:00,
2013-09-17 08:48:00,48.6,37.4,30.43,NNW,328,3.0,9.0,65,0.00,CLR,SCT,0.00,WeatherDisplay:10.37,2013-09-17 12:48:00,
2013-09-17 09:03:00,50.5,35.8,30.43,WNW,289,7.0,10.0,57,0.00,CLR,SCT,0.00,WeatherDisplay:10.37,2013-09-17 13:03:00,
2013-09-17 09:18:00,53.9,37.6,30.44,NW,321,6.0,8.0,54,0.00,CLR,SCT,0.00,WeatherDisplay:10.37,2013-09-17 13:18:00,
2013-09-17 09:33:00,52.8,36.6,30.45,West,269,5.0,10.0,54,0.00,CLR,SCT,0.00,WeatherDisplay:10.37,2013-09-17 13:33:00,
2013-09-17 09:48:00,53.8,37.5,30.45,North,355,6.0,9.0,54,0.00,CLR,SCT,0.00,WeatherDisplay:10.37,2013-09-17 13:48:00,
2013-09-17 10:03:00,54.8,34.4,30.45,NW,313,3.0,9.0,46,0.00,CLR,SCT,0.00,WeatherDisplay:10.37,2013-09-17 14:03:00,
2013-09-17 10:18:00,54.3,32.8,30.46,WNW,293,3.0,10.0,44,0.00,CLR,SCT,0.00,WeatherDisplay:10.37,2013-09-17 14:18:00,
2013-09-17 10:33:00,54.5,33.0,30.45,NW,325,6.0,10.0,44,0.00,CLR,SCT,0.00,WeatherDisplay:10.37,2013-09-17 14:33:00,
2013-09-17 10:48:00,55.4,33.8,30.46,NNW,331,5.0,8.0,44,0.00,CLR,SCT,0.00,WeatherDisplay:10.37,2013-09-17 14:48:00,
2013-09-17 11:03:00,56.3,32.3,30.45,NE,41,5.0,7.0,40,0.00,CLR,SCT,0.00,WeatherDisplay:10.37,2013-09-17 15:03:00,
2013-09-17 11:18:00,56.2,32.2,30.45,NNE,28,3.0,7.0,40,0.00,CLR,SCT,0.00,WeatherDisplay:10.37,2013-09-17 15:18:00,
2013-09-17 11:33:00,57.2,33.0,30.45,North,6,6.0,7.0,40,0.00,CLR,SCT,0.00,WeatherDisplay:10.37,2013-09-17 15:33:00,
2013-09-17 11:48:00,57.6,33.4,30.45,NW,318,5.0,9.0,40,0.00,CLR,SCT,0.00,WeatherDisplay:10.37,2013-09-17 15:48:00,
2013-09-17 12:03:00,57.5,31.4,30.45,WNW,291,3.0,7.0,37,0.00,CLR,SCT,0.00,WeatherDisplay:10.37,2013-09-17 16:03:00,
2013-09-17 12:18:00,58.3,32.1,30.44,NNW,338,5.0,13.0,37,0.00,CLR,SCT,0.00,WeatherDisplay:10.37,2013-09-17 16:18:00,
2013-09-17 12:33:00,59.1,32.8,30.44,NNE,13,3.0,9.0,37,0.00,CLR,SCT,0.00,WeatherDisplay:10.37,2013-09-17 16:33:00,
2013-09-17 12:48:00,60.0,33.6,30.44,NNE,15,2.0,6.0,37,0.00,CLR,SCT,0.00,WeatherDisplay:10.37,2013-09-17 16:48:00,
2013-09-17 13:03:00,60.6,34.2,30.43,North,351,5.0,8.0,37,0.00,CLR,SCT,0.00,WeatherDisplay:10.37,2013-09-17 17:03:00,
2013-09-17 13:18:00,61.3,34.8,30.43,NNE,26,3.0,6.0,37,0.00,CLR,SCT,0.00,WeatherDisplay:10.37,2013-09-17 17:18:00,
2013-09-17 13:33:00,62.6,36.0,30.42,North,355,3.0,7.0,37,0.00,CLR,SCT,0.00,WeatherDisplay:10.37,2013-09-17 17:33:00,
2013-09-17 13:48:00,62.0,35.4,30.41,NW,315,6.0,9.0,37,0.00,CLR,SCT,0.00,WeatherDisplay:10.37,2013-09-17 17:48:00,
2013-09-17 14:03:00,62.6,35.9,30.41,North,8,3.0,6.0,37,0.00,CLR,SCT,0.00,WeatherDisplay:10.37,2013-09-17 18:03:00,
2013-09-17 14:18:00,61.5,35.0,30.41,WNW,296,5.0,9.0,37,0.00,CLR,SCT,0.00,WeatherDisplay:10.37,2013-09-17 18:18:00,
2013-09-17 14:33:00,63.7,37.0,30.40,NW,310,5.0,7.0,37,0.00,CLR,SCT,0.00,WeatherDisplay:10.37,2013-09-17 18:33:00,
2013-09-17 14:48:00,63.3,36.5,30.40,WNW,284,3.0,7.0,37,0.00,CLR,SCT,0.00,WeatherDisplay:10.37,2013-09-17 18:48:00,
2013-09-17 15:03:00,62.8,35.4,30.39,West,270,5.0,7.0,36,0.00,CLR,SCT,0.00,WeatherDisplay:10.37,2013-09-17 19:03:00,
2013-09-17 15:18:00,63.1,35.7,30.38,West,268,7.0,7.0,36,0.00,CLR,SCT,0.00,WeatherDisplay:10.37,2013-09-17 19:18:00,
2013-09-17 15:33:00,64.9,37.3,30.38,NE,47,2.0,7.0,36,0.00,CLR,SCT,0.00,WeatherDisplay:10.37,2013-09-17 19:33:00,
2013-09-17 15:48:00,63.3,35.9,30.38,West,271,5.0,6.0,36,0.00,CLR,SCT,0.00,WeatherDisplay:10.37,2013-09-17 19:48:00,
2013-09-17 16:03:00,64.5,36.9,30.37,NW,317,2.0,7.0,36,0.00,CLR,SCT,0.00,WeatherDisplay:10.37,2013-09-17 20:03:00,
2013-09-17 16:18:00,64.5,36.9,30.36,NNE,33,2.0,6.0,36,0.00,CLR,SCT,0.00,WeatherDisplay:10.37,2013-09-17 20:18:00,
2013-09-17 16:33:00,63.2,35.7,30.36,NW,307,2.0,8.0,36,0.00,CLR,SCT,0.00,WeatherDisplay:10.37,2013-09-17 20:33:00,
2013-09-17 16:48:00,63.6,36.2,30.36,NW,313,3.0,5.0,36,0.00,CLR,SCT,0.00,WeatherDisplay:10.37,2013-09-17 20:48:00,
2013-09-17 17:03:00,63.7,35.5,30.36,North,355,2.0,5.0,35,0.00,CLR,SCT,0.00,WeatherDisplay:10.37,2013-09-17 21:03:00,
2013-09-17 17:18:00,62.6,34.5,30.35,North,3,2.0,5.0,35,0.00,CLR,SCT,0.00,WeatherDisplay:10.37,2013-09-17 21:18:00,
2013-09-17 17:33:00,64.3,36.0,30.35,NE,53,0.0,4.0,35,0.00,CLR,SCT,0.00,WeatherDisplay:10.37,2013-09-17 21:33:00,
2013-09-17 17:48:00,62.3,34.3,30.35,SSW,192,1.0,5.0,35,0.00,CLR,SCT,0.00,WeatherDisplay:10.37,2013-09-17 21:48:00,
2013-09-17 18:03:00,61.4,33.5,30.35,NNE,19,1.0,2.0,35,0.00,CLR,SCT,0.00,WeatherDisplay:10.37,2013-09-17 22:03:00,
2013-09-17 18:18:00,59.5,31.8,30.35,WSW,253,0.0,2.0,35,0.00,CLR,SCT,0.00,WeatherDisplay:10.37,2013-09-17 22:18:00,
2013-09-17 18:33:00,57.9,30.4,30.35,SW,235,0.0,0.0,35,0.00,CLR,SCT,0.00,WeatherDisplay:10.37,2013-09-17 22:33:00,
2013-09-17 18:48:00,55.9,28.6,30.35,WSW,238,0.0,0.0,35,0.00,CLR,SCT,0.00,WeatherDisplay:10.37,2013-09-17 22:48:00,
2013-09-17 19:03:00,54.5,36.2,30.34,SW,236,0.0,0.0,50,0.00,CLR,SCT,0.00,WeatherDisplay:10.37,2013-09-17 23:03:00,
2013-09-17 19:18:00,53.1,36.9,30.34,SW,223,0.0,0.0,54,0.00,CLR,SCT,0.00,WeatherDisplay:10.37,2013-09-17 23:18:00,
2013-09-17 19:33:00,51.8,35.6,30.35,West,281,0.0,0.0,54,0.00,CLR,SCT,0.00,WeatherDisplay:10.37,2013-09-17 23:33:00,
2013-09-17 19:48:00,50.5,34.5,30.35,South,184,0.0,0.0,54,0.00,CLR,SCT,0.00,WeatherDisplay:10.37,2013-09-17 23:48:00,
2013-09-17 20:03:00,49.5,40.1,30.35,WSW,238,0.0,0.0,70,0.00,CLR,SCT,0.00,WeatherDisplay:10.37,2013-09-18 00:03:00,
2013-09-17 20:18:00,48.6,40.7,30.35,West,278,0.0,0.0,74,0.00,CLR,SCT,0.00,WeatherDisplay:10.37,2013-09-18 00:18:00,
2013-09-17 20:33:00,47.7,39.8,30.35,SSW,211,0.0,0.0,74,0.00,CLR,SCT,0.00,WeatherDisplay:10.37,2013-09-18 00:33:00,
2013-09-17 20:48:00,46.9,39.0,30.35,WNW,301,0.0,0.0,74,0.00,CLR,SCT,0.00,WeatherDisplay:10.37,2013-09-18 00:48:00,
2013-09-17 21:03:00,46.4,39.9,30.35,SW,228,0.0,0.0,78,0.00,CLR,SCT,0.00,WeatherDisplay:10.37,2013-09-18 01:03:00,
2013-09-17 21:18:00,46.0,39.8,30.35,WSW,242,0.0,0.0,79,0.00,CLR,SCT,0.00,WeatherDisplay:10.37,2013-09-18 01:18:00,
2013-09-17 21:33:00,45.3,39.2,30.35,NNE,15,0.0,0.0,79,0.00,CLR,SCT,0.00,WeatherDisplay:10.37,2013-09-18 01:33:00,
2013-09-17 21:48:00,44.8,38.7,30.36,WNW,300,0.0,0.0,79,0.00,CLR,SCT,0.00,WeatherDisplay:10.37,2013-09-18 01:48:00,
2013-09-17 22:03:00,44.4,39.9,30.35,WSW,253,0.0,0.0,84,0.00,CLR,SCT,0.00,WeatherDisplay:10.37,2013-09-18 02:03:00,
2013-09-17 22:18:00,44.2,40.3,30.35,SSW,198,0.0,0.0,86,0.00,CLR,SCT,0.00,WeatherDisplay:10.37,2013-09-18 02:18:00,
2013-09-17 22:33:00,44.2,40.2,30.35,WNW,285,0.0,0.0,86,0.00,CLR,SCT,0.00,WeatherDisplay:10.37,2013-09-18 02:33:00,
2013-09-17 22:48:00,44.1,40.1,30.35,WSW,245,0.0,0.0,86,0.00,CLR,SCT,0.00,WeatherDisplay:10.37,2013-09-18 02:48:00,
2013-09-17 23:03:00,43.5,40.2,30.35,WSW,248,0.0,0.0,88,0.00,CLR,SCT,0.00,WeatherDisplay:10.37,2013-09-18 03:03:00,
2013-09-17 23:18:00,43.2,39.9,30.35,West,270,0.0,0.0,88,0.00,CLR,SCT,0.00,WeatherDisplay:10.37,2013-09-18 03:18:00,
2013-09-17 23:33:00,43.2,39.8,30.34,SW,226,0.0,0.0,88,0.00,CLR,SCT,0.00,WeatherDisplay:10.37,2013-09-18 03:33:00,
2013-09-17 23:48:00,43.2,39.9,30.34,SW,233,0.0,0.0,88,0.00,CLR,SCT,0.00,WeatherDisplay:10.37,2013-09-18 03:48:00,